Location: Unspecified
(54.1780°N, 0.0000°E)
Time: 09:15:06
(UTC+00:00)

Transit 2A - Pass Details

Date: 24 June 2019
Orbit: 597 x 962 km, 66.7° (Epoch: 24 August)

Event Time Altitude Azimuth Distance (km) Brightness Sun altitude
Rises 04:30:08 0° 295° (WNW) 3,616 9.2 6.4°
Reaches altitude 10° 04:33:16 10° 309° (NW) 2,636 8.6 6.8°
Maximum altitude 04:38:12 25° 2° (N) 1,739 8.4 7.4°
Drops below altitude 10° 04:42:51 10° 56° (ENE) 2,464 11.9 8.0°
Sets 04:45:41 0° 71° (ENE) 3,332 11.5 8.4°
